BREEZE-M DEB (TANK), 39129

Orbit data source: Space-Track

BREEZE-M DEB (TANK), 39129 is space debris in HEO originally from a launch on Mon, 15 Apr 2013 UTC launched from the Tyuratam Missile And Space Complex (TTMTR). Debris objects in space refer to the collection of defunct objects orbiting the Earth. Examples of debris include non-operational satellites, rocket bodies, and fragments generated from explosions, collisions, or faulty payload assembly.

Loading next visibility...
Identifier
39129, 2013-014C
Orbit
HEO
Country
Flag of CISCIS
Related business
Manufacturer
Khrunichev
Mission
Spacecraft
Bus & Motor
BRIZ TANK, Unknown motor
Mass
~1,000 kg wet, 1,000 kg dry
Launch date (UTC)
2013-04-15 (12 years ago)
Launch vehicle
Unknown
Launch site
Tyuratam Missile And Space Complex (TTMTR)
Object type
Payload
Rocket body
Debris
Shape & HBR
Torus, 2.0 m
Radar Cross Section
8.218 m², Large (>1 m²)

Expand to show TLE details & history
Last TLE update: 1 day ago

TLE from 1 day ago
0 BREEZE-M DEB (TANK)
1 39129U 13014C   25241.77905161  .00014454  00000-0  10103-2 0  9998
2 39129  49.3900 258.5047 5921689 250.2910  39.3026  4.20726387177402
Epoch: 2025-08-29T18:41Z
TLE epoch observation values (Epoch: 2025-08-29T18:41:50.059Z)
Latitude
-0.00006°
Longitude
-0.17199°
Altitude
6,780.838 km
Speed
6 km/s
True Right ascension
17h 14m 02s
True Declination
0° 00' 00"
Sunlit
Object was in daylight at epoch
Visualization orbit readout
Latitude
Unknown
Longitude
Unknown
Altitude
Unknown
Speed
Unknown
Apparent Right ascension
Unknown
Apparent Declination
Unknown
Sunlit
N/A
Visualization observer readout
Local Sidereal Time
15:52:18
Azimuth
Unknown
Elevation
Unknown
Doppler factor
Unknown
Orbital elements
Apogee altitude
19,429.224 km
Perigee altitude
232.371 km
Semi-major axis
16,208.934 km
Eccentricity
0.59217
Inclination
49.39°
RAAN
258.5047°
Arg. of periapsis
250.291°
True anomaly
109.75628°
Mean anomaly
39.3026°
Eccentric anomaly
71.47298°
Mean motion
1.05175 °/min
Orbital period
342.29 mins
BSTAR
0.0010103
Loading maneuver chart data...
Computing Atmospheric mass density...
Loading historical data...
Loading historical data...
Loading historical data...
Loading historical data...
Loading historical data...
Loading historical data...
Loading historical data...
Other satellites on launch #14 in the year 2013 (2013-04-15 UTC)

Documentation

Showing up to 5 results
|